When you browse on this site, cookies collect data to enhance your experience and personalize the content and advertising you see.
Visit our Privacy Policy to learn more. By continuing to use the site, you agree to this use of cookies and data.
  • En España
  • Lista de países
  • Para 7 días
  • Temperatura del agua
  • El tiempo en el mapa
  • Informadores
  • user-avatar
    Iniciar sesión

    Tiempo cada hora Avejru

    Hoy, 3 Junio, Miércoles

    Tiempo Temperatura Precipitaciones Viento Presión Humedad
    00:00 +18°C° 0 mm 1 mps 759 mmHg 95%
    01:00 +18°C° 0 mm 1 mps 759 mmHg 95%
    02:00 +18°C° 0 mm 1 mps 758 mmHg 95%
    03:00 +18°C° 0 mm 1 mps 758 mmHg 95%
    04:00 +18°C° 0 mm 1 mps 758 mmHg 94%
    05:00 +19°C° 0 mm 1 mps 757 mmHg 93%
    06:00 +20°C° 0 mm 1 mps 758 mmHg 87%
    07:00 +21°C° 0 mm 1 mps 758 mmHg 80%
    08:00 +23°C° 0 mm 1 mps 758 mmHg 74%
    09:00 +23°C° 0 mm 2 mps 758 mmHg 72%
    10:00 +24°C° 0 mm 2 mps 758 mmHg 70%
    11:00 +24°C° 0 mm 3 mps 757 mmHg 68%
    12:00 +24°C° 0 mm 3 mps 757 mmHg 67%
    13:00 +24°C° 0 mm 3 mps 757 mmHg 66%
    14:00 +23°C° 0 mm 4 mps 757 mmHg 65%
    15:00 +23°C° 0 mm 4 mps 756 mmHg 67%
    16:00 +22°C° 0 mm 3 mps 756 mmHg 70%
    17:00 +22°C° 0 mm 3 mps 756 mmHg 72%
    18:00 +20°C° 0 mm 3 mps 756 mmHg 79%
    19:00 +19°C° 0 mm 2 mps 756 mmHg 86%
    20:00 +17°C° 0 mm 2 mps 757 mmHg 93%
    21:00 +17°C° 0 mm 2 mps 757 mmHg 94%
    22:00 +18°C° 0 mm 1 mps 756 mmHg 95%
    23:00 +18°C° 0 mm 1 mps 756 mmHg 95%

    Mañana, 4 Junio, Jueves

    Tiempo Temperatura Precipitaciones Viento Presión Humedad
    00:00 +18°C° 0 mm 1 mps 756 mmHg 95%
    01:00 +18°C° 0 mm 1 mps 756 mmHg 96%
    02:00 +18°C° 0 mm 1 mps 755 mmHg 96%
    03:00 +18°C° 0 mm 1 mps 755 mmHg 95%
    04:00 +17°C° 0 mm 2 mps 755 mmHg 95%
    05:00 +17°C° 0 mm 2 mps 755 mmHg 94%
    06:00 +19°C° 0 mm 2 mps 756 mmHg 84%
    07:00 +20°C° 0 mm 3 mps 756 mmHg 74%
    08:00 +22°C° 0 mm 3 mps 756 mmHg 64%
    09:00 +22°C° 0 mm 4 mps 756 mmHg 57%
    10:00 +23°C° 0 mm 4 mps 757 mmHg 51%
    11:00 +25°C° 0 mm 5 mps 757 mmHg 45%
    12:00 +25°C° 0 mm 5 mps 756 mmHg 47%
    13:00 +23°C° 0 mm 6 mps 756 mmHg 49%
    14:00 +23°C° 0 mm 6 mps 756 mmHg 50%
    15:00 +22°C° 0 mm 6 mps 756 mmHg 54%
    16:00 +21°C° 0 mm 6 mps 756 mmHg 57%
    17:00 +20°C° 0 mm 5 mps 756 mmHg 60%
    18:00 +19°C° 0 mm 5 mps 757 mmHg 70%
    19:00 +17°C° 0 mm 4 mps 757 mmHg 79%
    20:00 +14°C° 0 mm 3 mps 758 mmHg 88%
    21:00 +14°C° 0 mm 3 mps 758 mmHg 90%
    22:00 +14°C° 0 mm 3 mps 758 mmHg 91%
    23:00 +15°C° 0 mm 2 mps 758 mmHg 92%

    Pasado mañana, 5 Junio, Viernes

    Tiempo Temperatura Precipitaciones Viento Presión Humedad
    00:00 +15°C° 0 mm 2 mps 758 mmHg 92%
    01:00 +14°C° 0 mm 2 mps 758 mmHg 93%
    02:00 +14°C° 0 mm 2 mps 758 mmHg 93%
    03:00 +14°C° 0 mm 2 mps 758 mmHg 92%
    04:00 +15°C° 0 mm 2 mps 758 mmHg 91%
    05:00 +15°C° 0 mm 2 mps 758 mmHg 90%
    06:00 +17°C° 0 mm 2 mps 758 mmHg 80%
    07:00 +20°C° 0 mm 2 mps 759 mmHg 71%
    08:00 +23°C° 0 mm 2 mps 759 mmHg 62%
    09:00 +24°C° 0 mm 2 mps 759 mmHg 59%
    10:00 +24°C° 0 mm 3 mps 759 mmHg 56%
    11:00 +25°C° 0 mm 4 mps 759 mmHg 52%
    12:00 +25°C° 0 mm 5 mps 758 mmHg 53%
    13:00 +23°C° 0 mm 5 mps 758 mmHg 53%
    14:00 +23°C° 0 mm 6 mps 758 mmHg 53%
    15:00 +22°C° 0 mm 5 mps 758 mmHg 58%
    16:00 +21°C° 0 mm 5 mps 758 mmHg 62%
    17:00 +20°C° 0 mm 5 mps 758 mmHg 67%
    18:00 +18°C° 0 mm 4 mps 758 mmHg 75%
    19:00 +17°C° 0 mm 4 mps 759 mmHg 84%
    20:00 +14°C° 0 mm 3 mps 759 mmHg 93%
    21:00 +16°C° 0 mm 3 mps 759 mmHg 91%
    22:00 +16°C° 0 mm 3 mps 759 mmHg 90%
    23:00 +16°C° 0 mm 3 mps 759 mmHg 88%

    6 Junio, Sábado

    Tiempo Temperatura Precipitaciones Viento Presión Humedad
    00:00 +17°C° 0 mm 3 mps 759 mmHg 87%
    01:00 +17°C° 0 mm 3 mps 759 mmHg 87%
    02:00 +17°C° 0 mm 3 mps 759 mmHg 86%
    03:00 +17°C° 0 mm 3 mps 759 mmHg 87%
    04:00 +17°C° 0 mm 3 mps 759 mmHg 88%
    05:00 +17°C° 0 mm 3 mps 758 mmHg 88%
    06:00 +18°C° 0 mm 3 mps 759 mmHg 84%
    07:00 +18°C° 0 mm 3 mps 759 mmHg 80%
    08:00 +19°C° 0 mm 3 mps 759 mmHg 76%
    09:00 +20°C° 0 mm 3 mps 759 mmHg 72%
    10:00 +20°C° 0 mm 3 mps 759 mmHg 68%
    11:00 +21°C° 0 mm 3 mps 758 mmHg 63%
    12:00 +21°C° 0 mm 4 mps 758 mmHg 63%
    13:00 +22°C° 0 mm 4 mps 758 mmHg 62%
    14:00 +22°C° 0 mm 5 mps 758 mmHg 62%
    15:00 +21°C° 0 mm 5 mps 758 mmHg 64%
    16:00 +21°C° 0 mm 5 mps 758 mmHg 65%
    17:00 +20°C° 0 mm 5 mps 758 mmHg 67%
    18:00 +19°C° 0 mm 4 mps 758 mmHg 74%
    19:00 +17°C° 0 mm 4 mps 758 mmHg 81%
    20:00 +16°C° 0 mm 3 mps 759 mmHg 88%
    21:00 +16°C° 0 mm 3 mps 758 mmHg 89%
    22:00 +16°C° 0 mm 3 mps 758 mmHg 90%
    23:00 +14°C° 0 mm 3 mps 758 mmHg 91%

    7 Junio, Domingo

    Tiempo Temperatura Precipitaciones Viento Presión Humedad
    00:00 +14°C° 0 mm 3 mps 758 mmHg 91%
    01:00 +14°C° 0 mm 3 mps 758 mmHg 91%
    02:00 +14°C° 0 mm 3 mps 758 mmHg 92%
    03:00 +14°C° 0 mm 3 mps 758 mmHg 90%
    04:00 +15°C° 0 mm 2 mps 759 mmHg 89%
    05:00 +16°C° 0 mm 2 mps 759 mmHg 87%
    06:00 +17°C° 0 mm 3 mps 759 mmHg 82%
    07:00 +18°C° 0 mm 3 mps 759 mmHg 76%
    08:00 +20°C° 0 mm 3 mps 759 mmHg 71%
    09:00 +20°C° 0 mm 4 mps 760 mmHg 67%
    10:00 +21°C° 0 mm 4 mps 760 mmHg 64%
    11:00 +21°C° 0 mm 5 mps 760 mmHg 60%
    12:00 +22°C° 0 mm 5 mps 760 mmHg 58%
    13:00 +22°C° 0 mm 5 mps 760 mmHg 55%
    14:00 +22°C° 0 mm 6 mps 759 mmHg 53%
    15:00 +21°C° 0 mm 6 mps 760 mmHg 57%
    16:00 +21°C° 0 mm 6 mps 760 mmHg 60%
    17:00 +20°C° 0 mm 5 mps 760 mmHg 64%
    18:00 +17°C° 0 mm 5 mps 760 mmHg 69%
    19:00 +16°C° 0 mm 5 mps 760 mmHg 74%
    20:00 +15°C° 0 mm 5 mps 761 mmHg 79%
    21:00 +14°C° 0 mm 4 mps 761 mmHg 81%
    22:00 +14°C° 0 mm 4 mps 761 mmHg 84%
    23:00 +14°C° 0 mm 4 mps 761 mmHg 87%

    8 Junio, Lunes

    Tiempo Temperatura Precipitaciones Viento Presión Humedad
    00:00 +13°C° 0 mm 4 mps 761 mmHg 88%
    01:00 +13°C° 0 mm 4 mps 761 mmHg 89%
    02:00 +13°C° 0 mm 4 mps 761 mmHg 91%
    03:00 +13°C° 0 mm 3 mps 761 mmHg 90%
    04:00 +13°C° 0 mm 3 mps 761 mmHg 89%
    05:00 +14°C° 0 mm 3 mps 761 mmHg 88%
    06:00 +17°C° 0 mm 3 mps 761 mmHg 78%
    07:00 +19°C° 0 mm 3 mps 761 mmHg 69%
    08:00 +21°C° 0 mm 2 mps 761 mmHg 60%
    09:00 +22°C° 0 mm 3 mps 761 mmHg 58%
    10:00 +23°C° 0 mm 4 mps 761 mmHg 56%
    11:00 +25°C° 0 mm 5 mps 761 mmHg 53%
    12:00 +23°C° 0 mm 6 mps 760 mmHg 53%
    13:00 +23°C° 0 mm 6 mps 760 mmHg 54%
    14:00 +23°C° 0 mm 7 mps 760 mmHg 54%
    15:00 +22°C° 0 mm 7 mps 760 mmHg 56%
    16:00 +21°C° 0 mm 7 mps 759 mmHg 58%
    17:00 +20°C° 0 mm 6 mps 759 mmHg 59%
    18:00 +19°C° 0 mm 6 mps 760 mmHg 65%
    19:00 +16°C° 0 mm 5 mps 760 mmHg 71%
    20:00 +15°C° 0 mm 4 mps 760 mmHg 77%
    21:00 +15°C° 0 mm 4 mps 760 mmHg 80%
    22:00 +14°C° 0 mm 4 mps 760 mmHg 82%
    23:00 +14°C° 0 mm 3 mps 760 mmHg 85%
    Mostrar más